BCS278 EDDP-LIMC

Flight info

Callsign BCS278
Flight time N/A
Altitude 36000
Route NEVKO1K NEVKO Q243 BAMKI Z94 KOMIB DCT TEDGO DCT SONOM/N0458F350 DCT GERSA DCT SOSON DCT DEGAD Z424 RIXUV
Aircraft B752/M-SDE3FGHIM3RWXY/LB1

Departure

Time 2026-05-05 09:07
Airport Leipzig/Halle Airport (EDDP)

Arrival

Time N/A
Airport Milan Malpensa International Airport (LIMC)
Time Latitude Longitude Altitude Speed Heading
2026-05-05 08:32 51.40834 12.24351 447 ft 0 kts 85°
2026-05-05 08:51 51.40833 12.24332 446 ft 2 kts 85°
2026-05-05 08:51 51.40832 12.24317 446 ft 1 kts 86°
2026-05-05 08:51 51.40830 12.24294 447 ft 2 kts 65°
2026-05-05 08:52 51.40822 12.24274 447 ft 2 kts 49°
2026-05-05 08:52 51.40811 12.24259 447 ft 2 kts 31°
2026-05-05 08:52 51.40797 12.24249 447 ft 2 kts 13°
2026-05-05 08:52 51.40784 12.24247 447 ft 0 kts 357°
2026-05-05 08:53 51.40778 12.24248 447 ft 0 kts 354°
2026-05-05 08:58 51.40785 12.24247 447 ft 2 kts 355°
2026-05-05 08:59 51.40810 12.24244 447 ft 4 kts 356°
2026-05-05 08:59 51.40844 12.24240 448 ft 5 kts 356°
2026-05-05 08:59 51.40883 12.24236 449 ft 5 kts 356°
2026-05-05 08:59 51.40924 12.24232 450 ft 6 kts 356°
2026-05-05 09:00 51.40967 12.24226 451 ft 6 kts 354°
2026-05-05 09:00 51.41009 12.24218 452 ft 6 kts 353°
2026-05-05 09:00 51.41053 12.24207 453 ft 5 kts 335°
2026-05-05 09:00 51.41071 12.24154 454 ft 6 kts 276°
2026-05-05 09:01 51.41069 12.24056 455 ft 10 kts 266°
2026-05-05 09:01 51.41063 12.23923 457 ft 13 kts 266°
2026-05-05 09:01 51.41057 12.23764 460 ft 15 kts 266°
2026-05-05 09:01 51.41047 12.23572 461 ft 19 kts 265°
2026-05-05 09:02 51.41038 12.23367 465 ft 19 kts 266°
2026-05-05 09:02 51.41027 12.23145 469 ft 21 kts 266°
2026-05-05 09:02 51.41017 12.22899 472 ft 23 kts 265°
2026-05-05 09:02 51.41006 12.22642 472 ft 18 kts 264°
2026-05-05 09:03 51.40995 12.22418 468 ft 13 kts 266°
2026-05-05 09:03 51.41041 12.22306 464 ft 10 kts 329°
2026-05-05 09:03 51.41071 12.22172 460 ft 17 kts 265°
2026-05-05 09:03 51.41060 12.21952 456 ft 13 kts 264°
2026-05-05 09:04 51.41050 12.21761 450 ft 21 kts 265°
2026-05-05 09:04 51.41039 12.21491 444 ft 27 kts 265°
2026-05-05 09:04 51.41022 12.21144 436 ft 34 kts 265°
2026-05-05 09:04 51.41008 12.20846 427 ft 22 kts 267°
2026-05-05 09:05 51.40998 12.20628 423 ft 17 kts 266°
2026-05-05 09:05 51.41017 12.20497 423 ft 10 kts 327°
2026-05-05 09:05 51.41081 12.20496 422 ft 8 kts 13°
2026-05-05 09:05 51.41130 12.20517 421 ft 6 kts 16°
2026-05-05 09:06 51.41159 12.20547 421 ft 3 kts 56°
2026-05-05 09:06 51.41168 12.20599 422 ft 7 kts 82°
2026-05-05 09:06 51.41178 12.20836 426 ft 49 kts 85°
2026-05-05 09:06 51.41222 12.21759 446 ft 115 kts 86°
2026-05-05 09:07 51.41296 12.23350 507 ft 169 kts 85°
2026-05-05 09:07 51.41384 12.25377 922 ft 194 kts 85°
2026-05-05 09:07 51.41474 12.27418 2005 ft 186 kts 84°
2026-05-05 09:07 51.41562 12.29533 2541 ft 203 kts 85°
2026-05-05 09:08 51.41295 12.31852 2926 ft 224 kts 120°
2026-05-05 09:08 51.40200 12.33610 3632 ft 232 kts 151°
2026-05-05 09:08 51.38658 12.34201 4404 ft 234 kts 186°
2026-05-05 09:08 51.37178 12.33362 5252 ft 230 kts 215°
2026-05-05 09:09 51.35896 12.31869 6116 ft 228 kts 216°
2026-05-05 09:09 51.34642 12.30316 6779 ft 236 kts 228°
2026-05-05 09:09 51.33844 12.27961 7188 ft 254 kts 258°
2026-05-05 09:09 51.33581 12.25073 7658 ft 270 kts 255°
2026-05-05 09:10 51.32765 12.22371 8284 ft 276 kts 227°
2026-05-05 09:10 51.31223 12.20613 9119 ft 276 kts 203°
2026-05-05 09:10 51.29481 12.19415 9845 ft 280 kts 208°
2026-05-05 09:10 51.27782 12.17867 10539 ft 286 kts 212°
2026-05-05 09:11 51.26057 12.16081 10869 ft 304 kts 214°
2026-05-05 09:11 51.24270 12.14092 11155 ft 323 kts 216°
2026-05-05 09:11 51.22425 12.11953 11420 ft 342 kts 217°
2026-05-05 09:11 51.20449 12.09614 11656 ft 360 kts 217°
2026-05-05 09:12 51.18459 12.07235 12366 ft 362 kts 217°
2026-05-05 09:12 51.16447 12.04816 13000 ft 366 kts 218°
2026-05-05 09:12 51.14394 12.02341 13700 ft 369 kts 218°
2026-05-05 09:12 51.12518 11.99623 14401 ft 369 kts 230°
2026-05-05 09:13 51.11089 11.96244 14992 ft 374 kts 239°
2026-05-05 09:13 51.09734 11.92699 15684 ft 375 kts 237°
2026-05-05 09:13 51.08371 11.89185 16286 ft 379 kts 238°
2026-05-05 09:13 51.06982 11.85582 16880 ft 383 kts 238°
2026-05-05 09:14 51.05600 11.81989 17483 ft 386 kts 238°
2026-05-05 09:14 51.04207 11.78366 18017 ft 390 kts 238°
2026-05-05 09:14 51.02792 11.74687 18616 ft 392 kts 238°
2026-05-05 09:14 51.01369 11.70994 19168 ft 395 kts 238°
2026-05-05 09:15 50.99936 11.67274 19728 ft 397 kts 238°
2026-05-05 09:15 50.98497 11.63543 20312 ft 399 kts 238°
2026-05-05 09:15 50.97065 11.59838 20788 ft 403 kts 238°
2026-05-05 09:15 50.95603 11.56058 21281 ft 406 kts 238°
2026-05-05 09:16 50.94123 11.52239 21840 ft 407 kts 238°
2026-05-05 09:16 50.92644 11.48427 22323 ft 409 kts 238°
2026-05-05 09:16 50.91146 11.44572 22799 ft 412 kts 238°
2026-05-05 09:16 50.89648 11.40721 23127 ft 418 kts 239°
2026-05-05 09:17 50.88124 11.36812 23685 ft 418 kts 239°
2026-05-05 09:17 50.86585 11.32868 24099 ft 422 kts 238°
2026-05-05 09:17 50.84919 11.29063 24496 ft 425 kts 232°
2026-05-05 09:17 50.83141 11.25386 25017 ft 426 kts 233°
2026-05-05 09:18 50.81337 11.21644 25434 ft 429 kts 232°
2026-05-05 09:18 50.79543 11.17940 25869 ft 431 kts 232°
2026-05-05 09:18 50.77731 11.14203 26357 ft 431 kts 232°
2026-05-05 09:18 50.75881 11.10401 26739 ft 434 kts 232°
2026-05-05 09:19 50.74058 11.06658 27070 ft 437 kts 232°
2026-05-05 09:19 50.72097 11.03027 27500 ft 438 kts 225°
2026-05-05 09:19 50.69775 10.99930 27876 ft 441 kts 217°
2026-05-05 09:19 50.67246 10.97121 28217 ft 444 kts 217°
2026-05-05 09:20 50.64756 10.94350 28591 ft 445 kts 216°
2026-05-05 09:20 50.62221 10.91551 28876 ft 448 kts 216°
2026-05-05 09:20 50.59675 10.88751 29240 ft 449 kts 216°
2026-05-05 09:20 50.57084 10.85909 29550 ft 451 kts 216°
2026-05-05 09:21 50.54533 10.83120 29883 ft 453 kts 216°
2026-05-05 09:21 50.51962 10.80312 30248 ft 453 kts 216°
2026-05-05 09:21 50.49397 10.77518 30662 ft 452 kts 216°
2026-05-05 09:21 50.46815 10.74709 31010 ft 452 kts 216°
2026-05-05 09:22 50.44231 10.71903 31477 ft 449 kts 216°
2026-05-05 09:22 50.41693 10.69149 31861 ft 448 kts 216°
2026-05-05 09:22 50.39150 10.66391 32266 ft 446 kts 216°
2026-05-05 09:22 50.36612 10.63643 32681 ft 444 kts 216°
2026-05-05 09:23 50.34052 10.60875 33034 ft 443 kts 216°
2026-05-05 09:23 50.31533 10.58162 33376 ft 442 kts 216°
2026-05-05 09:23 50.29005 10.55443 33719 ft 440 kts 216°
2026-05-05 09:23 50.26507 10.52761 34045 ft 439 kts 216°
2026-05-05 09:24 50.23995 10.50060 34369 ft 436 kts 218°
2026-05-05 09:24 50.21686 10.47064 34667 ft 434 kts 225°
2026-05-05 09:24 50.19593 10.43743 34914 ft 433 kts 226°
2026-05-05 09:24 50.17491 10.40414 35133 ft 432 kts 226°
2026-05-05 09:25 50.15380 10.37061 35239 ft 433 kts 226°
2026-05-05 09:25 50.13289 10.33740 35488 ft 432 kts 225°
2026-05-05 09:25 50.11167 10.30367 35515 ft 435 kts 225°
2026-05-05 09:25 50.09033 10.27070 35793 ft 431 kts 221°
2026-05-05 09:26 50.06655 10.24267 35835 ft 430 kts 212°
2026-05-05 09:26 50.01280 10.20174 35835 ft 434 kts 206°
2026-05-05 09:27 49.95804 10.16296 35834 ft 435 kts 205°
2026-05-05 09:27 49.90312 10.12459 35833 ft 435 kts 205°
2026-05-05 09:28 49.84801 10.08633 35840 ft 435 kts 205°
2026-05-05 09:28 49.79304 10.04833 35846 ft 435 kts 205°
2026-05-05 09:29 49.73782 10.01028 35841 ft 433 kts 205°
2026-05-05 09:29 49.68299 9.97262 35846 ft 434 kts 205°
2026-05-05 09:30 49.62803 9.93496 35844 ft 433 kts 205°
2026-05-05 09:30 49.57299 9.89734 35851 ft 434 kts 205°
2026-05-05 09:31 49.51807 9.85988 35852 ft 433 kts 205°
2026-05-05 09:31 49.46307 9.82248 35850 ft 434 kts 205°
2026-05-05 09:32 49.40801 9.78512 35849 ft 433 kts 205°
2026-05-05 09:32 49.35305 9.74793 35861 ft 433 kts 205°
2026-05-05 09:33 49.29790 9.71070 35862 ft 434 kts 205°
2026-05-05 09:33 49.24280 9.67359 35863 ft 435 kts 205°
2026-05-05 09:34 49.18749 9.63642 35855 ft 433 kts 204°
2026-05-05 09:34 49.13253 9.59960 35860 ft 434 kts 204°
2026-05-05 09:35 49.07723 9.56262 35848 ft 435 kts 204°
2026-05-05 09:35 48.99439 9.50741 35845 ft 435 kts 204°
2026-05-05 09:36 48.93898 9.47060 35841 ft 434 kts 204°
2026-05-05 09:36 48.88367 9.43393 35851 ft 436 kts 204°
2026-05-05 09:37 48.82816 9.39722 35856 ft 436 kts 204°
2026-05-05 09:37 48.77268 9.36062 35859 ft 436 kts 204°
2026-05-05 09:38 48.71730 9.32418 35860 ft 436 kts 203°
2026-05-05 09:38 48.66202 9.28788 35865 ft 435 kts 203°
2026-05-05 09:39 48.60549 9.25430 35867 ft 435 kts 197°
2026-05-05 09:39 48.54753 9.22833 35851 ft 436 kts 196°
2026-05-05 09:40 48.48953 9.20253 35845 ft 436 kts 196°
2026-05-05 09:40 48.43162 9.17697 35843 ft 435 kts 196°
2026-05-05 09:41 48.37391 9.15160 35843 ft 435 kts 196°
2026-05-05 09:41 48.31575 9.12613 35845 ft 436 kts 196°
2026-05-05 09:42 48.25800 9.10090 35849 ft 435 kts 196°
2026-05-05 09:42 48.19975 9.07552 35855 ft 437 kts 196°
2026-05-05 09:43 48.14163 9.05026 35860 ft 438 kts 196°
2026-05-05 09:43 48.08321 9.02493 35864 ft 437 kts 196°
2026-05-05 09:44 48.02491 8.99971 35865 ft 438 kts 196°
2026-05-05 09:44 47.96650 8.97449 35866 ft 437 kts 196°
2026-05-05 09:45 47.90858 8.94955 35857 ft 435 kts 196°
2026-05-05 09:45 47.85037 8.92455 35875 ft 437 kts 196°
2026-05-05 09:46 47.79195 8.89951 35880 ft 438 kts 196°
2026-05-05 09:46 47.73458 8.87167 35874 ft 436 kts 198°
2026-05-05 09:47 47.67681 8.84308 35886 ft 437 kts 198°
2026-05-05 09:47 47.61944 8.81476 35880 ft 436 kts 198°
2026-05-05 09:48 47.56205 8.78651 35871 ft 438 kts 198°